User: anonymous   Login
Location: Mentone
(34.5413°N, 85.5351°W)
Time: 08:17:24
(UTC-05:00)
Language:

Okean O Rocket - Orbit

View from above orbital plane
View from above orbital plane
View from above satellite
View from above satellite

Ground track
Ground track

The orbit data is extracted from the following two-line orbital elements,

1 25861U 99039B   14304.13606760  .00000637  00000-0  95707-4 0  7786
2 25861 097.9684 261.3752 0014339 298.4529 128.7790 14.77840908823940
Epoch (UTC): 31 October 2014 03:15:56
Eccentricity: 0.0014339
inclination: 97.9684°
perigee height: 626 km
apogee height: 646 km
right ascension of ascending node: 261.3752°
argument of perigee: 298.4529°
revolutions per day: 14.77840908
mean anomaly at epoch: 128.7790°
orbit number at epoch: 82394

The dashed part of the orbit path shows where the satellite is in the earth's shadow,  

DLR